Date String (YYYY-MM-DD hh:mm:ss) UTC,Instrument flags,absolute air pressure of the measurement (hPa),sample flow rate (lpm),inlet stack bypass flow (lpm),air temperature of the measurement (°C),ambient temperature measured by the external sensor (°C),aerosol sample conditioner tube jacket temperature (°C),OPC LED temperature (°C),internal box temperature (°C),relative humidity of the measurement (%),span deviation,mass concentration of particles derived from Lorenz-Mie calculation of OPC scattering (μg/m³),mass concentration of particles derived from Lorenz-Mie calculation of OPC scattering (μg/m³),mass concentration of particles derived from Lorenz-Mie calculation of OPC scattering (μg/m³)
DateTimeUTC,F1_M11,P_M11,Q1_M11,Q2_M11,T1_M11,T2_M11,T3_M11,T4_M11,T5_M11,U1_M11,ZSPAN_M11,X0_M11,X2_M11,X1_M11
2023-09-01 14:00:00,SystemResetWarning,0830.7,5.00,000.00,028.3,026.9,000.0,036.7,030.0,20.6,0000.0,0006.71,0003.12,0002.24
2023-09-01 14:01:00,SystemResetWarning,0830.8,5.00,000.00,028.4,027.1,000.0,036.7,030.0,20.9,0000.0,0006.19,0003.10,0002.25
2023-09-01 14:02:00,SystemResetWarning,0830.8,5.00,000.00,028.4,027.2,000.0,036.8,030.1,21.1,0000.0,0006.05,0003.09,0002.26
2023-09-01 14:03:00,SystemResetWarning,0830.9,5.00,000.00,028.4,027.3,000.0,036.8,030.1,22.3,0000.0,0005.90,0003.06,0002.28
2023-09-01 14:04:00,SystemResetWarning,0830.8,5.00,000.00,028.5,027.5,000.0,036.8,030.2,22.3,0000.0,0005.84,0003.09,0002.32
2023-09-01 14:05:00,SystemResetWarning,0830.9,5.00,000.00,028.5,027.5,000.0,036.8,030.2,21.5,0000.0,0005.72,0003.04,0002.34
2023-09-01 14:06:00,SystemResetWarning,0830.9,4.97,000.00,028.6,027.0,000.0,036.8,030.1,22.3,0000.0,0005.86,0003.06,0002.37
2023-09-01 14:07:00,SystemResetWarning,0830.8,5.00,000.00,028.5,025.4,000.0,036.7,029.6,22.7,0000.0,0005.85,0003.09,0002.39
2023-09-01 14:08:00,SystemResetWarning,0830.8,5.00,000.00,028.3,024.9,000.0,036.6,029.5,21.2,0000.0,0005.65,0003.06,0002.38
2023-09-01 14:09:00,SystemResetWarning,0830.8,5.01,000.00,028.3,025.1,000.0,036.6,029.5,20.9,0000.0,0005.39,0003.03,0002.38
2023-09-01 14:10:00,SystemResetWarning,0830.7,5.00,000.00,028.2,025.4,000.0,036.7,029.5,19.6,0000.0,0005.15,0002.99,0002.36
2023-09-01 14:11:00,SystemResetWarning,0830.7,5.00,000.00,028.2,025.7,000.0,036.7,029.6,20.5,0000.0,0004.92,0003.01,0002.35
2023-09-01 14:12:00,SystemResetWarning,0830.7,5.00,000.00,028.2,026.1,000.0,036.7,029.7,20.8,0000.0,0005.11,0003.06,0002.35
2023-09-01 14:13:00,SystemResetWarning,0830.7,5.00,000.00,028.2,026.3,000.0,036.7,029.8,20.0,0000.0,0005.53,0003.13,0002.35
2023-09-01 14:14:00,SystemResetWarning,0830.7,4.99,000.00,028.3,026.6,000.0,036.7,029.9,20.3,0000.0,0005.64,0003.17,0002.35
2023-09-01 14:15:00,SystemResetWarning,0830.8,5.00,000.00,028.3,026.8,000.0,036.7,029.9,20.2,0000.0,0005.58,0003.14,0002.33
2023-09-01 14:16:00,SystemResetWarning,0830.8,5.00,000.00,028.3,027.0,000.0,036.7,030.0,19.6,0000.0,0005.50,0003.14,0002.32
2023-09-01 14:17:00,SystemResetWarning,0830.9,5.00,000.00,028.4,027.1,000.0,036.7,030.0,19.3,0000.0,0005.29,0003.13,0002.32
2023-09-01 14:18:00,SystemResetWarning,0830.9,5.00,000.00,028.4,027.3,000.0,036.8,030.1,19.4,0000.0,0005.08,0003.12,0002.32
2023-09-01 14:19:00,SystemResetWarning,0830.9,5.00,000.00,028.5,027.4,000.0,036.8,030.1,18.6,0000.0,0004.99,0003.12,0002.34
2023-09-01 14:20:00,SystemResetWarning,0830.9,4.99,000.00,028.5,027.3,000.0,036.8,030.2,22.1,0000.0,0004.86,0003.11,0002.35
2023-09-01 14:21:00,SystemResetWarning,0831.0,4.99,000.00,028.5,026.1,000.0,036.7,029.8,22.4,0000.0,0004.75,0003.10,0002.35
2023-09-01 14:22:00,SystemResetWarning,0830.9,5.00,000.00,028.3,024.9,000.0,036.6,029.5,21.6,0000.0,0004.69,0003.08,0002.35
2023-09-01 14:23:00,SystemResetWarning,0831.0,5.02,000.00,028.3,025.0,000.0,036.6,029.5,21.0,0000.0,0004.86,0003.07,0002.35
2023-09-01 14:24:00,SystemResetWarning,0831.0,5.00,000.00,028.2,025.3,000.0,036.6,029.5,21.4,0000.0,0004.71,0003.03,0002.36
2023-09-01 14:25:00,SystemResetWarning,0831.1,4.99,000.00,028.2,025.7,000.0,036.6,029.6,22.4,0000.0,0004.59,0002.99,0002.36
2023-09-01 14:26:00,SystemResetWarning,0831.2,5.00,000.00,028.2,026.0,000.0,036.6,029.7,21.8,0000.0,0004.60,0003.02,0002.39
2023-09-01 14:27:00,SystemResetWarning,0831.2,5.00,000.00,028.2,026.3,000.0,036.7,029.8,21.5,0000.0,0005.85,0003.08,0002.41
2023-09-01 14:28:00,SystemResetWarning,0831.1,5.00,000.00,028.3,026.6,000.0,036.7,029.8,21.4,0000.0,0006.10,0003.09,0002.40
2023-09-01 14:29:00,SystemResetWarning,0831.1,5.00,000.00,028.3,026.8,000.0,036.7,029.9,21.7,0000.0,0006.19,0003.10,0002.40
2023-09-01 14:30:00,SystemResetWarning,0831.1,5.00,000.00,028.3,027.0,000.0,036.7,030.0,21.9,0000.0,0006.27,0003.11,0002.39
2023-09-01 14:31:00,SystemResetWarning,0831.1,5.00,000.00,028.4,027.1,000.0,036.7,030.0,21.2,0000.0,0006.40,0003.14,0002.42
2023-09-01 14:32:00,SystemResetWarning,0831.2,5.00,000.00,028.4,027.2,000.0,036.7,030.1,21.0,0000.0,0006.55,0003.16,0002.44
2023-09-01 14:33:00,SystemResetWarning,0831.1,4.98,000.00,028.4,026.3,000.0,036.7,029.8,22.4,0000.0,0007.16,0003.19,0002.46
2023-09-01 14:34:00,SystemResetWarning,0831.0,5.01,000.00,028.3,025.0,000.0,036.6,029.4,22.3,0000.0,0007.66,0003.21,0002.48
2023-09-01 14:35:00,SystemResetWarning,0831.0,5.01,000.00,028.2,024.9,000.0,036.5,029.5,21.2,0000.0,0007.88,0003.24,0002.49
2023-09-01 14:36:00,SystemResetWarning,0830.9,5.00,000.00,028.2,025.2,000.0,036.5,029.4,21.2,0000.0,0007.95,0003.25,0002.51
2023-09-01 14:37:00,SystemResetWarning,0830.9,5.00,000.00,028.1,025.6,000.0,036.6,029.5,21.0,0000.0,0008.37,0003.24,0002.49
2023-09-01 14:38:00,SystemResetWarning,0830.9,5.00,000.00,028.2,025.9,000.0,036.6,029.6,21.8,0000.0,0008.58,0003.19,0002.47
2023-09-01 14:39:00,SystemResetWarning,0830.9,5.00,000.00,028.2,026.2,000.0,036.6,029.7,21.4,0000.0,0008.56,0003.19,0002.47
2023-09-01 14:40:00,SystemResetWarning,0830.9,4.99,000.00,028.2,026.5,000.0,036.6,029.8,20.8,0000.0,0008.52,0003.18,0002.46
2023-09-01 14:41:00,SystemResetWarning,0830.9,4.99,000.00,028.2,026.7,000.0,036.6,029.9,20.1,0000.0,0008.52,0003.16,0002.44
2023-09-01 14:42:00,SystemResetWarning,0830.9,4.99,000.00,028.3,026.9,000.0,036.6,029.9,20.6,0000.0,0008.49,0003.13,0002.41
2023-09-01 14:43:00,SystemResetWarning,0830.9,5.00,000.00,028.3,027.1,000.0,036.7,030.0,20.4,0000.0,0008.48,0003.12,0002.42
2023-09-01 14:44:00,SystemResetWarning,0830.9,5.00,000.00,028.4,027.1,000.0,036.7,030.1,22.2,0000.0,0008.58,0003.09,0002.41
2023-09-01 14:45:00,SystemResetWarning,0830.9,5.00,000.00,028.3,025.9,000.0,036.6,029.7,24.8,0000.0,0008.14,0003.08,0002.41
2023-09-01 14:46:00,SystemResetWarning,0830.8,5.01,000.00,028.2,024.8,000.0,036.5,029.4,24.7,0000.0,0007.87,0003.01,0002.40
2023-09-01 14:47:00,SystemResetWarning,0830.9,5.01,000.00,028.1,025.0,000.0,036.5,029.4,25.7,0000.0,0007.84,0003.02,0002.39
2023-09-01 14:48:00,SystemResetWarning,0830.9,5.00,000.00,028.1,025.3,000.0,036.5,029.4,24.1,0000.0,0007.40,0003.01,0002.38
2023-09-01 14:49:00,SystemResetWarning,0830.9,5.00,000.00,028.1,025.6,000.0,036.5,029.5,24.4,0000.0,0005.91,0003.06,0002.39
2023-09-01 14:50:00,SystemResetWarning,0830.9,5.00,000.00,028.1,026.0,000.0,036.5,029.6,22.4,0000.0,0006.17,0003.07,0002.38
2023-09-01 14:51:00,SystemResetWarning,0830.9,5.00,000.00,028.1,026.3,000.0,036.5,029.7,24.2,0000.0,0006.57,0003.11,0002.39
2023-09-01 14:52:00,SystemResetWarning,0830.9,5.00,000.00,028.2,026.6,000.0,036.6,029.8,25.1,0000.0,0007.19,0003.15,0002.41
2023-09-01 14:53:00,SystemResetWarning,0830.9,4.99,000.00,028.2,026.8,000.0,036.6,029.9,24.4,0000.0,0007.30,0003.16,0002.41
2023-09-01 14:54:00,SystemResetWarning,0830.9,5.00,000.00,028.3,027.0,000.0,036.6,029.9,23.4,0000.0,0007.32,0003.16,0002.39
2023-09-01 14:55:00,SystemResetWarning,0830.9,4.99,000.00,028.3,026.7,000.0,036.6,029.9,23.2,0000.0,0007.44,0003.17,0002.39
2023-09-01 14:56:00,SystemResetWarning,0830.9,5.00,000.00,028.2,025.3,000.0,036.5,029.4,23.7,0000.0,0007.82,0003.20,0002.40
2023-09-01 14:57:00,SystemResetWarning,0830.9,5.01,000.00,028.1,024.8,000.0,036.4,029.4,23.4,0000.0,0007.83,0003.21,0002.41
2023-09-01 14:58:00,SystemResetWarning,0830.9,5.01,000.00,028.1,025.1,000.0,036.4,029.4,23.5,0000.0,0007.87,0003.22,0002.43
2023-09-01 14:59:00,SystemResetWarning,0830.9,4.99,000.00,028.0,025.4,000.0,036.4,029.4,23.0,0000.0,0007.96,0003.26,0002.47
